Tracking 35055 objects as of 18-Aug-2026
HD Live streaming from Space Station
objects crossing your sky now

SALYUT 7 DEB


SALYUT 7 DEB is no longer on orbit


NORAD ID: 16750
Int'l Code: 1982-033GV
Launch date: April 19, 1982
Source: Commonwealth of Independent States (former USSR) (CIS)
Launch site: TYURATAM MISSILE AND SPACE COMPLEX (TTMTR)
Decay date: 1986-06-19

Note: This is SATELLITE DEBRIS
Your satellite tracking list
Your tracking list is empty




NASA's NSSDC Master Catalog

Two Line Element Set (TLE):
1 16750U 82033GV  86170.11939356  .29020117 +54734-4 +48435-2 0  9999
2 16750 051.6021 223.3421 0004229 115.8493 244.3819 16.32471957018859
Source of the keplerian elements: AFSPC